This is the latest recevied weather packets stored in our database for station/object HASTNG-WX. If no packets are shown the sender has not sent any weather packets the latest 10 day(s).
| Time | Temp. | Humidity | Pressure | Rain* | Wind** | Luminosity | Snow |
|---|---|---|---|---|---|---|---|
| 1777587331 | 9.44° C | 39% | 987.1 hPa | 0 mm | - | - | - |
| 1777586456 | 10° C | 39% | 987.1 hPa | 0 mm | - | - | - |
| 1777585530 | 10° C | 41% | 985.9 hPa | 0 mm | - | - | - |
| 1777584647 | 10° C | 43% | 986.7 hPa | 0 mm | - | - | - |
| 1777583731 | 10° C | 43% | 986.7 hPa | 0 mm | - | - | - |
| 1777582849 | 10° C | 43% | 986.7 hPa | 0 mm | - | - | - |
| 1777581931 | 10° C | 41% | 986.5 hPa | 0 mm | - | - | - |
| 1777581048 | 10° C | 42% | 986.1 hPa | 0 mm | - | - | - |
| 1777580131 | 10° C | 42% | 986.1 hPa | 0 mm | - | - | - |
| 1777579256 | 10° C | 42% | 986.1 hPa | 0 mm | - | - | - |
| 1777578331 | 10° C | 42% | 986.2 hPa | 0 mm | - | - | - |
| 1777577444 | 10° C | 42% | 986.2 hPa | 0 mm | - | - | - |
| 1777576531 | 10° C | 42% | 986.1 hPa | 0 mm | - | - | - |
| 1777575653 | 10° C | 42% | 986.1 hPa | 0 mm | - | - | - |
| 1777574731 | 10° C | 44% | 986 hPa | 0 mm | - | - | - |
| 1777573842 | 10° C | 47% | 985.8 hPa | 0 mm | - | - | - |
| 1777572929 | 10° C | 47% | 985.8 hPa | 0 mm | - | - | - |
| 1777572057 | 10° C | 47% | 985.8 hPa | 0 mm | - | - | - |
| 1777571129 | 9.44° C | 55% | 986.3 hPa | 0 mm | - | - | - |
| 1777570246 | 9.44° C | 52% | 986.6 hPa | 0 mm | - | - | - |
| 1777569330 | 9.44° C | 52% | 986.6 hPa | 0 mm | - | - | - |
| 1777568453 | 8.89° C | 52% | 986.6 hPa | 0 mm | - | - | - |
| 1777567529 | 8.89° C | 56% | 985.5 hPa | 0 mm | - | - | - |
| 1777566647 | 8.89° C | 59% | 986 hPa | 0 mm | - | - | - |
| 1777565729 | 8.89° C | 59% | 986 hPa | 0 mm | - | - | - |
* Rain latest hour (hover to see other rain measurements)
** Current wind speed in m/s (hover to see current wind gust speed)